sat.trackr.live / text

‹ back to catalog

KUIPER-00448

NORAD 68871 · 2026-095H

PAYLOAD ACTIVE UNKNOWN

§ Identity

Operator
Country
US
Launch date
2026-04-28
Launch site
AFETR
Launch vehicle
Mass (kg)
RCS (m²)

External: N2YO · Heavens-Above · Gunter

§ Orbital elements

Epoch: 2026-09-20T01:08:30.799680Z

Period
97.54 min
Inclination
51.9041°
Eccentricity
0.0003489
Mean motion
14.76334868 rev/d
Perigee alt
638.5 km
Apogee alt
643.4 km
Semi-major
7,019.1 km
B*
2.0218e-4
RAAN
183.6367°
Arg perigee
55.0253°
Mean anomaly
305.1035°
Rev number
2,176

§ Raw data

KUIPER-004481 68871U 26095H   26263.04757870  .00001201  00000+0  20218-3 0  99982 68871  51.9041 183.6367 0003489  55.0253 305.1035 14.76334868 21763

JSON: /api/v1/satellites/68871 · /tle

For live sub-satellite position, see the globe view (requires WebGL).

§ Visibility from observer

Set your observer location to see the next 7 days of passes ≥ 10°. The values pass through the URL so the page stays shareable.

No JS? Fill the form by hand. The geolocation button needs JavaScript.